Miscellaneous Local Product
Issued by NWS North Platte, NE

Home | Current Version | Previous Version | Text Only | Print | Product List | Glossary On
Versions: 1 2 3 4 5 6 7 8 9 10 11 12 13 14 15 16 17 18 19 20 21 22 23 24 25 26 27 28 29 30 31 32 33 34 35 36 37 38 39 40 41 42 43 44 45 46 47 48 49 50
257
AXUS43 KLBF 010110
MISLBF


WESTERN AND NORTH CENTRAL NEBRASKA HOURLY WEATHER ROUNDUP
NATIONAL WEATHER SERVICE NORTH PLATTE NE
800 PM CDT SUN APR 30 2017

NOTE: "FAIR" INDICATES FEW OR NO CLOUDS BELOW 12,000 FEET WITH NO
SIGNIFICANT WEATHER AND/OR OBSTRUCTIONS TO VISIBILITY.

NOTE: STATIONS NOT REPORTING VARIABLES SUCH AS SKY/WEATHER OR
PRESSURE ARE PROVIDED BY RAWS AND APRS NETWORKS AND ARE NOT UNDER
NATIONAL WEATHER SERVICE QUALITY CONTROL.

...OBSERVATIONS IN AND NEAR THE EASTERN PANHANDLE OF NEBRASKA...

CITY           SKY/WX    TMP DP  RH WIND       PRES   REMARKS
PINE RIDGE     PTCLDY    54  23  30 N13       29.83S
CHADRON        CLOUDY    55  25  31 NE13      29.83S
ALLIANCE       PTCLDY    53  20  27 N17       29.81S
SIDNEY         CLOUDY    52  19  27 N26G35    29.81R
CRESCENT LAKE    N/A     50  20  30 N14G30      N/A
$$

...OBSERVATIONS IN NORTHERN NEBRASKA AND FAR SOUTHERN SOUTH DAKOTA...

CITY           SKY/WX    TMP DP  RH WIND       PRES   REMARKS
WINNER         CLOUDY    49  22  34 NE12      29.79F
VALENTINE      CLOUDY    50  16  25 N17G24    29.78F
THEDFORD       CLOUDY    47  20  35 N12G22    29.75S
AINSWORTH      CLOUDY    45  25  45 NE15      29.76S
O`NEILL        SNOW      33  32  94 N17       29.72F VSB 1/2 WCI  23
ORD            LGT SNOW  34  31  88 N25G33    29.63F FOG     WCI  21
BROKEN BOW     LGT SNOW  34  33  96 N33G43    29.67F FOG     WCI  20
HALSEY           N/A     44  20  37 N13G35      N/A
BUTTE            N/A     35  33  94 N20G29      N/A  WCI  24
CHAMBERS         N/A     33  32  98 N3          N/A
EWING            N/A     34  32  93 N12G21      N/A  WCI  25
$$

...OBSERVATIONS IN SOUTHWEST NEBRASKA AND FAR NORTHEAST COLORADO...

CITY           SKY/WX    TMP DP  RH WIND       PRES   REMARKS
HOLYOKE        FAIR      54  27  35 N18G26    29.77S
IMPERIAL       CLOUDY    48  21  34 N22       29.74S
OGALLALA       CLOUDY    51  22  32 N18G28    29.76S
NORTH PLATTE   CLOUDY    39  31  72 N22G32    29.73F WCI  29
MCCOOK         CLOUDY    36  32  85 N28       29.72S WCI  23
LEXINGTON      LGT SNOW  34  32  92 N33       29.68S WCI  20
STAPLETON        N/A     40  27  59 E5G12       N/A
GOTHENBURG       N/A     33  33  99 NW20        N/A  WCI  21
CALLAWAY         N/A     33  32  97 N26         N/A  WCI  20
$$

...OBSERVATIONS IN CENTRAL LINCOLN COUNTY AREA...

CITY           SKY/WX    TMP DP  RH WIND       PRES   REMARKS
N.P. AIRPORT   CLOUDY    39  31  72 N22G32    29.73F WCI  29
N.P. DOWNTOWN    N/A     44  25  47 N16G30      N/A
N.P. SOUTHEAST   N/A     42  26  53 N9G21       N/A
N.P. HILLCREST   N/A     42  27  55 NE23G32     N/A
$$

...SOME OBSERVATIONS FROM AROUND THE REGION...

CITY           SKY/WX    TMP DP  RH WIND       PRES   REMARKS
DENVER         PTCLDY    56  19  23 N25G33    29.83R
LIMON          CLEAR     49  24  37 N23G33    29.81S
ASPEN          CLOUDY    45  19  35 N10       30.06R
LARAMIE        CLOUDY    47  20  34 NW22G31   29.93S
CASPER         SUNNY     53  25  33 W15       29.91F
CHEYENNE       CLOUDY    52  19  27 NW18G31   29.88F
SCOTTSBLUFF    CLEAR     56  25  30 N13       29.83F
GRAND ISLAND   CLOUDY    35  35 100 N18       29.61S WCI  24
OMAHA          CLOUDY    44  38  79 N16       29.54R
SIOUX FALLS    RAIN      38  38 100 N12       29.72F FOG     WCI  30
PIERRE         CLOUDY    53  20  27 NE12      29.82R
RAPID CITY     CLOUDY    56  21  25 N12       29.85S
BISMARCK       MOCLDY    61  28  28 E9        29.86S
KANSAS CITY    LGT RAIN  47  41  80 S17G29    29.49R
HILL CITY      LGT SNOW  34  33  96 N29G39    29.67S FOG     WCI  20
WICHITA        CLOUDY    43  41  93 NW21G28   29.49R
DODGE CITY     CLOUDY    35  32  88 NW30G44   29.69R WCI  22
OKLAHOMA CITY  CLOUDY    53  36  52 W25G38    29.69R
DALLAS         PTCLDY    62  32  32 W22G31    29.86R
AMARILLO       CLOUDY    53  25  33 NW22G32   29.86R
$$




USA.gov is the U.S. government's official web portal to all federal, state and local government web resources and services.